If you wish to contribute or participate in the discussions about articles you are invited to join SKYbrary as a registered user

 Actions

Agen-La Garenne Airport

From SKYbrary Wiki

LFBA
Airport
ICAO: LFBA – IATA: AGF
Summary
Name Agen-La Garenne Airport
Region Europe
Territory France FR.gif
Location Agen, Aquitaine
Serving Agen
Elevation 62.179 m
204 ft
204 ft62.179 m
Type medium airport
Coordinates 44° 10' 29.00" N, 0° 35' 26.00" E
Runways
Designator Length Width Surface ROPS
11/29 2165 m7,103.018 ft
30 m98.425 ft
ASP /


METAR
Observation LFBA 162200Z AUTO 22001KT CAVOK 14/11 Q1018
Station Agen
Date/Time 16 June 2019 22:00:00
Wind direction 220°
Wind speed 01 kts
Lowest cloud amount clouds and visibility OK
Temperature 14°C
Dew point 11°C
Humidity 82%
QNH 1018 hPa
Weather condition n/a

Maps

Terrain

Loading map...

Airport Layout

Loading map...


Accidents & Serious Incidents at or in vicinity of LFBA

None on SKYbrary